Back to catalog

STARLINK-30111

AliveCommunicationsVLEO
NORAD 56302·PAYLOAD·🇺🇸 United States

Launched Apr 19, 2023 from Cape Canaveral Space Force Station

Loading…

Next Passes (next 24 hours)

TLE

FreshSource: CelesTrak SupGP

Epoch: Sep 14, 2026, 13:45 UTC

1 56302C 23056S   26257.57340278 -.00032516  00000+0 -11780-2 0  2574
2 56302  42.9999 221.8698 0001302 269.7711 330.3393 15.27587191    16

Track STARLINK-30111 in real time with AllMySat

Download on the App Store